Date String (YYYY-MM-DD hh:mm:ss) UTC,Instrument flags,absolute air pressure of the measurement (hPa),sample flow rate (lpm),inlet stack bypass flow (lpm),air temperature of the measurement (°C),ambient temperature measured by the external sensor (°C),aerosol sample conditioner tube jacket temperature (°C),OPC LED temperature (°C),internal box temperature (°C),relative humidity of the measurement (%),span deviation,mass concentration of particles derived from Lorenz-Mie calculation of OPC scattering (μg/m³),mass concentration of particles derived from Lorenz-Mie calculation of OPC scattering (μg/m³),mass concentration of particles derived from Lorenz-Mie calculation of OPC scattering (μg/m³)
DateTimeUTC,F1_M11,P_M11,Q1_M11,Q2_M11,T1_M11,T2_M11,T3_M11,T4_M11,T5_M11,U1_M11,ZSPAN_M11,X0_M11,X2_M11,X1_M11
2023-06-09 20:00:00,SystemResetWarning,0829.3,5.00,000.00,029.3,026.8,000.0,037.7,031.0,24.2,0000.0,0007.88,0003.54,0002.84
2023-06-09 20:01:00,SystemResetWarning,0829.3,5.01,000.00,029.3,025.5,000.0,037.7,031.0,23.7,0000.0,0008.17,0003.60,0002.88
2023-06-09 20:02:00,SystemResetWarning,0829.2,5.01,000.00,029.3,025.6,000.0,037.7,030.9,23.5,0000.0,0008.58,0003.65,0002.90
2023-06-09 20:03:00,SystemResetWarning,0829.2,5.01,000.00,029.2,025.9,000.0,037.7,030.7,24.1,0000.0,0008.62,0003.71,0002.94
2023-06-09 20:04:00,SystemResetWarning,0829.2,5.00,000.00,029.2,026.3,000.0,037.7,030.7,23.5,0000.0,0008.85,0003.75,0002.98
2023-06-09 20:05:00,SystemResetWarning,0829.2,5.00,000.00,029.2,026.6,000.0,037.7,030.7,24.4,0000.0,0009.08,0003.79,0003.02
2023-06-09 20:06:00,SystemResetWarning,0829.1,5.00,000.00,029.2,027.0,000.0,037.7,030.8,24.5,0000.0,0009.35,0003.82,0003.04
2023-06-09 20:07:00,SystemResetWarning,0829.1,5.00,000.00,029.3,027.3,000.0,037.7,030.8,24.5,0000.0,0009.28,0003.88,0003.06
2023-06-09 20:08:00,SystemResetWarning,0829.1,5.01,000.00,029.3,027.5,000.0,037.7,030.9,23.5,0000.0,0009.81,0003.90,0003.09
2023-06-09 20:09:00,SystemResetWarning,0829.1,4.99,000.00,029.3,027.7,000.0,037.8,030.9,23.9,0000.0,0009.85,0003.89,0003.10
2023-06-09 20:10:00,SystemResetWarning,0829.1,4.99,000.00,029.3,027.9,000.0,037.8,031.0,23.8,0000.0,0009.97,0003.92,0003.11
2023-06-09 20:11:00,SystemResetWarning,0829.1,5.00,000.00,029.4,027.1,000.0,037.8,031.0,23.9,0000.0,0009.96,0003.94,0003.11
2023-06-09 20:12:00,SystemResetWarning,0829.1,5.00,000.00,029.4,025.1,000.0,037.7,030.9,23.8,0000.0,0009.86,0003.94,0003.10
2023-06-09 20:13:00,SystemResetWarning,0829.0,5.00,000.00,029.3,024.4,000.0,037.7,030.9,22.8,0000.0,0009.48,0003.91,0003.11
2023-06-09 20:14:00,SystemResetWarning,0829.0,5.01,000.00,029.2,024.7,000.0,037.6,030.6,24.0,0000.0,0009.66,0003.91,0003.13
2023-06-09 20:15:00,SystemResetWarning,0829.0,5.01,000.00,029.1,025.1,000.0,037.7,030.5,24.7,0000.0,0010.17,0003.91,0003.14
2023-06-09 20:16:00,SystemResetWarning,0829.0,4.99,000.00,029.1,025.6,000.0,037.7,030.5,25.8,0000.0,0010.60,0003.90,0003.14
2023-06-09 20:17:00,SystemResetWarning,0829.0,4.99,000.00,029.1,026.1,000.0,037.7,030.6,25.7,0000.0,0010.43,0003.93,0003.16
2023-06-09 20:18:00,SystemResetWarning,0829.0,5.00,000.00,029.1,026.5,000.0,037.7,030.6,26.0,0000.0,0010.38,0003.90,0003.17
2023-06-09 20:19:00,SystemResetWarning,0829.1,5.00,000.00,029.1,026.8,000.0,037.7,030.7,26.0,0000.0,0009.92,0003.89,0003.17
2023-06-09 20:20:00,SystemResetWarning,0829.0,4.99,000.00,029.1,027.1,000.0,037.7,030.7,25.3,0000.0,0009.52,0003.92,0003.19
2023-06-09 20:21:00,SystemResetWarning,0829.0,4.99,000.00,029.2,027.4,000.0,037.7,030.7,24.7,0000.0,0009.51,0003.90,0003.19
2023-06-09 20:22:00,SystemResetWarning,0829.0,5.00,000.00,029.2,027.6,000.0,037.7,030.8,25.0,0000.0,0009.13,0003.83,0003.19
2023-06-09 20:23:00,SystemResetWarning,0829.0,5.01,000.00,029.2,027.8,000.0,037.7,030.9,24.6,0000.0,0008.88,0003.79,0003.19
2023-06-09 20:24:00,SystemResetWarning,0829.0,5.01,000.00,029.3,027.9,000.0,037.7,030.9,23.7,0000.0,0008.79,0003.77,0003.20
2023-06-09 20:25:00,SystemResetWarning,0829.1,4.99,000.00,029.3,028.0,000.0,037.7,031.0,23.4,0000.0,0008.80,0003.76,0003.18
2023-06-09 20:26:00,SystemResetWarning,0829.1,4.98,000.00,029.3,027.9,000.0,037.7,031.0,23.9,0000.0,0008.11,0003.74,0003.15
2023-06-09 20:27:00,SystemResetWarning,0829.1,4.99,000.00,029.4,026.1,000.0,037.7,031.0,23.6,0000.0,0007.36,0003.72,0003.14
2023-06-09 20:28:00,SystemResetWarning,0829.1,5.01,000.00,029.3,025.3,000.0,037.7,030.9,23.6,0000.0,0007.42,0003.67,0003.12
2023-06-09 20:29:00,SystemResetWarning,0829.1,5.01,000.00,029.3,025.5,000.0,037.7,030.8,23.9,0000.0,0007.35,0003.65,0003.10
2023-06-09 20:30:00,SystemResetWarning,0829.1,5.01,000.00,029.2,025.9,000.0,037.7,030.7,24.3,0000.0,0007.55,0003.68,0003.09
2023-06-09 20:31:00,SystemResetWarning,0829.1,4.99,000.00,029.2,026.2,000.0,037.7,030.7,24.1,0000.0,0007.57,0003.67,0003.06
2023-06-09 20:32:00,SystemResetWarning,0829.1,4.99,000.00,029.2,026.6,000.0,037.7,030.7,24.3,0000.0,0007.38,0003.61,0003.03
2023-06-09 20:33:00,SystemResetWarning,0829.2,5.00,000.00,029.2,026.9,000.0,037.7,030.8,24.2,0000.0,0007.40,0003.63,0003.00
2023-06-09 20:34:00,SystemResetWarning,0829.2,5.01,000.00,029.2,027.2,000.0,037.7,030.8,24.5,0000.0,0007.50,0003.66,0002.98
2023-06-09 20:35:00,SystemResetWarning,0829.3,5.00,000.00,029.3,027.5,000.0,037.7,030.9,24.5,0000.0,0007.60,0003.70,0002.96
2023-06-09 20:36:00,SystemResetWarning,0829.4,5.00,000.00,029.3,027.7,000.0,037.8,030.9,24.3,0000.0,0007.55,0003.70,0002.95
2023-06-09 20:37:00,SystemResetWarning,0829.4,4.99,000.00,029.3,027.9,000.0,037.8,031.0,24.3,0000.0,0007.54,0003.68,0002.94
2023-06-09 20:38:00,SystemResetWarning,0829.3,4.99,000.00,029.4,027.4,000.0,037.8,031.0,23.8,0000.0,0007.53,0003.70,0002.94
2023-06-09 20:39:00,SystemResetWarning,0829.4,5.01,000.00,029.4,025.6,000.0,037.7,030.9,23.2,0000.0,0007.36,0003.69,0002.93
2023-06-09 20:40:00,SystemResetWarning,0829.3,5.00,000.00,029.3,025.3,000.0,037.7,031.0,23.6,0000.0,0007.43,0003.71,0002.92
2023-06-09 20:41:00,SystemResetWarning,0829.3,5.01,000.00,029.3,025.6,000.0,037.7,030.7,24.2,0000.0,0007.30,0003.72,0002.89
2023-06-09 20:42:00,SystemResetWarning,0829.3,5.00,000.00,029.2,025.9,000.0,037.7,030.7,24.5,0000.0,0007.33,0003.69,0002.87
2023-06-09 20:43:00,SystemResetWarning,0829.3,4.99,000.00,029.2,026.3,000.0,037.7,030.7,24.4,0000.0,0007.97,0003.74,0002.85
2023-06-09 20:44:00,SystemResetWarning,0829.3,4.99,000.00,029.2,026.7,000.0,037.7,030.7,23.5,0000.0,0008.02,0003.73,0002.84
2023-06-09 20:45:00,SystemResetWarning,0829.3,5.00,000.00,029.2,027.0,000.0,037.7,030.8,23.4,0000.0,0007.97,0003.68,0002.81
2023-06-09 20:46:00,SystemResetWarning,0829.4,5.01,000.00,029.3,027.3,000.0,037.7,030.9,23.3,0000.0,0007.95,0003.65,0002.80
2023-06-09 20:47:00,SystemResetWarning,0829.6,5.01,000.00,029.3,027.5,000.0,037.8,030.9,23.4,0000.0,0008.26,0003.65,0002.77
2023-06-09 20:48:00,SystemResetWarning,0829.6,5.00,000.00,029.3,027.7,000.0,037.8,031.0,23.4,0000.0,0008.46,0003.66,0002.76
2023-06-09 20:49:00,SystemResetWarning,0829.6,5.00,000.00,029.4,027.9,000.0,037.8,031.0,24.1,0000.0,0008.53,0003.65,0002.73
2023-06-09 20:50:00,SystemResetWarning,0829.4,4.98,000.00,029.4,026.8,000.0,037.8,031.1,20.1,0000.0,0008.61,0003.66,0002.73
2023-06-09 20:51:00,SystemResetWarning,0829.3,5.01,000.00,029.4,025.2,000.0,037.7,031.0,20.2,0000.0,0008.55,0003.61,0002.71
2023-06-09 20:52:00,SystemResetWarning,0829.3,5.02,000.00,029.3,025.2,000.0,037.7,030.9,20.9,0000.0,0008.63,0003.62,0002.71
2023-06-09 20:53:00,SystemResetWarning,0829.3,5.00,000.00,029.3,025.5,000.0,037.7,030.6,20.9,0000.0,0008.66,0003.65,0002.69
2023-06-09 20:54:00,SystemResetWarning,0829.4,4.99,000.00,029.2,025.8,000.0,037.7,030.5,20.6,0000.0,0008.68,0003.66,0002.67
2023-06-09 20:55:00,SystemResetWarning,0829.3,5.00,000.00,029.2,026.2,000.0,037.7,030.5,19.8,0000.0,0008.67,0003.63,0002.64
2023-06-09 20:56:00,SystemResetWarning,0829.4,5.01,000.00,029.2,026.5,000.0,037.7,030.6,19.9,0000.0,0009.05,0003.66,0002.60
2023-06-09 20:57:00,SystemResetWarning,0829.4,4.99,000.00,029.2,026.8,000.0,037.7,030.6,20.4,0000.0,0008.82,0003.60,0002.55
2023-06-09 20:58:00,SystemResetWarning,0829.3,4.99,000.00,029.2,027.1,000.0,037.7,030.7,20.6,0000.0,0008.56,0003.53,0002.48
2023-06-09 20:59:00,SystemResetWarning,0829.4,5.01,000.00,029.2,027.3,000.0,037.7,030.7,20.1,0000.0,0008.55,0003.48,0002.43
